Tracking 19634 objects as of 21-May-2019
HD Live streaming from Space Station
objects crossing your sky now

TEMISAT

Track TEMISAT now!
10-day predictions
TEMISAT is classified as:


NORAD ID: 22783
Int'l Code: 1993-055B
Perigee: 942.2 km
Apogee: 973.7 km
Inclination: 82.6 °
Period: 104.1 minutes
Semi major axis: 7328 km
RCS: 0.2915 m2 (medium)
Launch date: August 31, 1993
Source: Italy (IT)
Launch site: PLESETSK MISSILE AND SPACE COMPLEX (PKMTR)
aabbcc
Your satellite tracking list
Your tracking list is empty




NASA's NSSDC Master Catalog

Two Line Element Set (TLE):
1 22783U 93055B   19141.67151249  .00000030  00000-0  13479-4 0  9996
2 22783  82.5515 187.5241 0021508 255.3607 104.5169 13.83701825298948
Source of the keplerian elements: AFSPC